Flag for Germany Weather past 2 weeks in Backnang, Baden-Württemberg, Germany

Now
30 °F

Clear.


Feels Like: 30 °F
Forecast: 28 / 49 °F
Wind: 1 mph from South

Location: Oehringen

Current Time: Mar 6, 2015 at 3:56:10 AM

Latest Report: Mar 6, 2015 at 3:00 AM


Visibility: 13 mi

Pressure: 30.67 "Hg

Humidity: 89%

Dew point: 28 °F

Location of BacknangLocation

Historic Weather in Backnang — Graph

°F

Backnang temperature yesterday

Maximum temperature yesterday: 44 °F (at 4:00 PM)
Minimum temperature yesterday: 34 °F (at 7:00 AM)
Average temperature yesterday: 39 °F

Past Weeks' High & Low Weather Summary

 TemperatureHumidityPressure
High57 °F (Feb 20, 4:00 PM)98% (Feb 28, 6:00 AM)30.68 "Hg (Feb 28, 6:00 AM)
Low24 °F (Feb 20, 7:00 AM)34% (Feb 21, 1:00 AM)29.53 "Hg (Feb 21, 11:00 AM)
Average39 °F75%30.03 "Hg
* Reported Feb 19 2:00 AM — Mar 6 2:00 AM, Backnang, Weather by CustomWeather, © 2015

Note: Actual official high and low records may vary slightly from our data, if they occured in-between our weather recording intervals... More about our weather records

Advertising

Backnang weather history for previous 24 hours

 ConditionsComfort  
Time TempWeatherWind HumidityBarometerVisibility
2:00 AM
Fri, Mar 6
32 °FPassing clouds.2 mph86%30.68 "Hg14 mi
1:00 AM33 °FClear.1 mph85%30.67 "Hg14 mi
12:00 AM35 °FPassing clouds.1 mph81%30.67 "Hg16 mi
10:00 PM
Thu, Mar 5
37 °FOvercast.1 mph73%30.66 "Hg12 mi
9:00 PM38 °FOvercast.1 mph69%30.65 "Hg17 mi
8:00 PM39 °FOvercast.2 mph64%30.64 "Hg22 mi
7:00 PM40 °FOvercast.2 mph63%30.63 "Hg25 mi
6:00 PM42 °FOvercast.3 mph56%30.61 "Hg31 mi
5:00 PM43 °FOvercast.3 mph51%30.60 "Hg37 mi
4:00 PM44 °FOvercast.3 mph49%30.59 "Hg37 mi
3:00 PM44 °FOvercast.6 mph47%30.59 "Hg34 mi
2:00 PM44 °FScattered clouds.5 mph51%30.60 "Hg37 mi
1:00 PM43 °FScattered clouds.5 mph50%30.61 "Hg25 mi
12:00 PM42 °FOvercast.5 mph58%30.62 "Hg37 mi
11:00 AM39 °FOvercast.5 mph65%30.63 "Hg28 mi
10:00 AM38 °FOvercast.3 mph74%30.62 "Hg22 mi
9:00 AM36 °FOvercast.2 mph80%30.61 "Hg17 mi
8:00 AM35 °FOvercast.3 mph84%30.59 "Hg12 mi
7:00 AM34 °FPartly sunny.3 mph86%30.58 "Hg12 mi
6:00 AM35 °FPassing clouds.3 mph84%30.55 "Hg14 mi
5:00 AM36 °FOvercast.5 mph80%30.53 "Hg16 mi
4:00 AM37 °FOvercast.3 mph79%30.52 "Hg17 mi
3:00 AM37 °FOvercast.6 mph76%30.50 "Hg18 mi
Weather by CustomWeather, © 2015

See weather overviewHow to use our weather pages